This demonstration page uses our WeatherBlox Daily Observations layout. Learn more.

Left ArrowRight Arrow

Hourly Observations for December 15, 2019

Temp ( °F °C ) Dew Point ( °F °C ) Humidity (%) Winds ( mph kmh ) Pressure ( in mb ) Visibility ( mi km ) Precip ( " mm )
12:53 am 00:53 Clear 37 2.8 36 2.2 96 96 Calm 30.01 1016 10 16 0.00 0.00
1:53 am 01:53 Clear 36 2.2 35 1.7 97 97 NW 5 7 30.03 1017 7 11 0.00 0.00
2:53 am 02:53 Clear with Mist and Fog 35 1.7 33 0.6 93 93 Calm 30.05 1018 5 8 0.00 0.00
3:53 am 03:53 Clear with Mist and Fog 34 1.1 32 0 92 92 Calm 30.07 1018 6 10 0.00 0.00
4:53 am 04:53 Clear with Mist and Fog 34 1.1 32 0 92 92 Calm 30.09 1019 6 10 0.00 0.00
5:53 am 05:53 Clear 37 2.8 35 1.7 93 93 N 5 7 30.11 1020 10 16 0.00 0.00
6:53 am 06:53 Clear 33 0.6 31 -0.6 92 92 Calm 30.14 1021 8 13 0.00 0.00
7:53 am 07:53 Sunny 34 1.1 32 0 92 92 Calm 30.16 1021 7 11 0.00 0.00
8:53 am 08:53 Sunny 37 2.8 35 1.7 93 93 Calm 30.21 1023 9 14 0.00 0.00
9:53 am 09:53 Sunny 43 6.1 38 3.3 82 82 Calm 30.23 1024 10 16 0.00 0.00
10:53 am 10:53 Sunny 46 7.8 39 3.9 77 77 Calm 30.24 1024 10 16 0.00 0.00
11:53 am 11:53 Sunny 48 8.9 39 3.9 71 71 SSE 3 6 30.23 1024 10 16 0.00 0.00
12:53 pm 12:53 Sunny 50 10 36 2.2 59 59 Calm 30.22 1024 10 16 0.00 0.00
1:53 pm 13:53 Sunny 52 11.1 39 3.9 61 61 ESE 5 7 30.21 1023 10 16 0.00 0.00
2:53 pm 14:53 Sunny 53 11.7 36 2.2 52 52 Calm 30.22 1023 10 16 0.00 0.00
3:53 pm 15:53 Mostly Cloudy 51 10.6 35 1.7 54 54 Calm 30.21 1023 10 16 0.00 0.00
4:53 pm 16:53 Clear 46 7.8 37 2.8 71 71 Calm 30.22 1024 10 16 0.00 0.00
5:53 pm 17:53 Clear 45 7.2 39 3.9 80 80 Calm 30.24 1024 10 16 0.00 0.00
6:53 pm 18:53 Clear 42 5.6 38 3.3 85 85 Calm 30.25 1024 10 16 0.00 0.00
7:53 pm 19:53 Clear 41 5 38 3.3 89 89 Calm 30.27 1025 7 11 0.00 0.00
8:53 pm 20:53 Clear 38 3.3 36 2.2 93 93 Calm 30.27 1025 7 11 0.00 0.00
9:53 pm 21:53 Clear 38 3.3 36 2.2 93 93 Calm 30.28 1026 7 11 0.00 0.00
10:53 pm 22:53 Clear 38 3.3 36 2.2 93 93 Calm 30.30 1026 9 14 0.00 0.00
11:53 pm 23:53 Clear 37 2.8 35 1.7 93 93 N 7 11 30.30 1026 9 14 0.00 0.00

Powered by AerisWeather